Year,Month,Day,Hour,Minute,Value (Times are PST for temperature in C)
2010,08,14,00,00,22.50
2010,08,14,00,01,22.50
2010,08,14,00,02,22.50
2010,08,14,00,03,22.50
2010,08,14,00,04,22.50
2010,08,14,00,05,22.40
2010,08,14,00,06,22.40
2010,08,14,00,07,22.40
2010,08,14,00,08,22.40
2010,08,14,00,09,22.40
2010,08,14,00,10,22.40
2010,08,14,00,11,22.40
2010,08,14,00,12,22.40
2010,08,14,00,13,22.40
2010,08,14,00,14,22.40
2010,08,14,00,15,22.40
2010,08,14,00,16,22.30
2010,08,14,00,17,22.30
2010,08,14,00,18,22.30
2010,08,14,00,19,22.30
2010,08,14,00,20,22.20
2010,08,14,00,21,22.20
2010,08,14,00,22,22.20
2010,08,14,00,23,22.10
2010,08,14,00,24,22.10
2010,08,14,00,25,22.10
2010,08,14,00,26,22.00
2010,08,14,00,27,22.00
2010,08,14,00,28,22.00
2010,08,14,00,29,21.90
2010,08,14,00,30,21.90
2010,08,14,00,31,21.90
2010,08,14,00,32,21.90
2010,08,14,00,33,21.80
2010,08,14,00,34,21.80
2010,08,14,00,35,21.80
2010,08,14,00,36,21.80
2010,08,14,00,37,21.80
2010,08,14,00,38,21.90
2010,08,14,00,39,21.90
2010,08,14,00,40,21.90
2010,08,14,00,41,21.90
2010,08,14,00,42,21.90
2010,08,14,00,43,21.90
2010,08,14,00,44,21.90
2010,08,14,00,45,21.90
2010,08,14,00,46,22.00
2010,08,14,00,47,22.00
2010,08,14,00,48,22.00
2010,08,14,00,49,22.00
2010,08,14,00,50,22.00
2010,08,14,00,51,22.00
2010,08,14,00,52,22.00
2010,08,14,00,53,22.00
2010,08,14,00,54,22.00
2010,08,14,00,55,22.00
2010,08,14,00,56,22.00
2010,08,14,00,57,22.00
2010,08,14,00,58,22.10
2010,08,14,00,59,22.10
2010,08,14,01,00,22.10
2010,08,14,01,01,22.10
2010,08,14,01,02,22.10
2010,08,14,01,03,22.10
2010,08,14,01,04,22.10
2010,08,14,01,05,22.10
2010,08,14,01,06,22.10
2010,08,14,01,07,22.10
2010,08,14,01,08,22.10
2010,08,14,01,09,22.20
2010,08,14,01,10,22.20
2010,08,14,01,11,22.20
2010,08,14,01,12,22.20
2010,08,14,01,13,22.20
2010,08,14,01,14,22.20
2010,08,14,01,15,22.10
2010,08,14,01,16,22.10
2010,08,14,01,17,22.10
2010,08,14,01,18,22.10
2010,08,14,01,19,22.10
2010,08,14,01,20,22.00
2010,08,14,01,21,22.00
2010,08,14,01,22,22.00
2010,08,14,01,23,22.00
2010,08,14,01,24,21.90
2010,08,14,01,25,21.90
2010,08,14,01,26,21.90
2010,08,14,01,27,21.90
2010,08,14,01,28,21.80
2010,08,14,01,29,21.80
2010,08,14,01,30,21.80
2010,08,14,01,31,21.80
2010,08,14,01,32,21.80
2010,08,14,01,33,21.80
2010,08,14,01,34,21.70
2010,08,14,01,35,21.70
2010,08,14,01,36,21.70
2010,08,14,01,37,21.70
2010,08,14,01,38,21.70
2010,08,14,01,39,21.70
2010,08,14,01,40,21.70
2010,08,14,01,41,21.70
2010,08,14,01,42,21.60
2010,08,14,01,43,21.60
2010,08,14,01,44,21.60
2010,08,14,01,45,21.60
2010,08,14,01,46,21.60
2010,08,14,01,47,21.60
2010,08,14,01,48,21.60
2010,08,14,01,49,21.60
2010,08,14,01,50,21.60
2010,08,14,01,51,21.60
2010,08,14,01,52,21.60
2010,08,14,01,53,21.60
2010,08,14,01,54,21.60
2010,08,14,01,55,21.60
2010,08,14,01,56,21.60
2010,08,14,01,57,21.60
2010,08,14,01,58,21.70
2010,08,14,01,59,21.70
2010,08,14,02,00,21.70
2010,08,14,02,01,21.70
2010,08,14,02,02,21.70
2010,08,14,02,03,21.70
2010,08,14,02,04,21.70
2010,08,14,02,05,21.70
2010,08,14,02,06,21.70
2010,08,14,02,07,21.60
2010,08,14,02,08,21.60
2010,08,14,02,09,21.60
2010,08,14,02,10,21.60
2010,08,14,02,11,21.60
2010,08,14,02,12,21.60
2010,08,14,02,13,21.60
2010,08,14,02,14,21.60
2010,08,14,02,15,21.60
2010,08,14,02,16,21.60
2010,08,14,02,17,21.60
2010,08,14,02,18,21.50
2010,08,14,02,19,21.40
2010,08,14,02,20,21.40
2010,08,14,02,21,21.40
2010,08,14,02,22,21.30
2010,08,14,02,23,21.30
2010,08,14,02,24,21.30
2010,08,14,02,25,21.30
2010,08,14,02,26,21.30
2010,08,14,02,27,21.30
2010,08,14,02,28,21.30
2010,08,14,02,29,21.30
2010,08,14,02,30,21.30
2010,08,14,02,31,21.30
2010,08,14,02,32,21.30
2010,08,14,02,33,21.30
2010,08,14,02,34,21.30
2010,08,14,02,35,21.30
2010,08,14,02,36,21.30
2010,08,14,02,37,21.30
2010,08,14,02,38,21.30
2010,08,14,02,39,21.30
2010,08,14,02,40,21.30
2010,08,14,02,41,21.30
2010,08,14,02,42,21.20
2010,08,14,02,43,21.20
2010,08,14,02,44,21.20
2010,08,14,02,45,21.20
2010,08,14,02,46,21.10
2010,08,14,02,47,21.10
2010,08,14,02,48,21.00
2010,08,14,02,49,21.00
2010,08,14,02,50,21.00
2010,08,14,02,51,21.00
2010,08,14,02,52,20.90
2010,08,14,02,53,20.90
2010,08,14,02,54,20.90
2010,08,14,02,55,20.90
2010,08,14,02,56,20.90
2010,08,14,02,57,20.80
2010,08,14,02,58,20.80
2010,08,14,02,59,20.80
2010,08,14,03,00,20.80
2010,08,14,03,01,20.80
2010,08,14,03,02,20.70
2010,08,14,03,03,20.70
2010,08,14,03,04,20.70
2010,08,14,03,05,20.70
2010,08,14,03,06,20.70
2010,08,14,03,07,20.60
2010,08,14,03,08,20.60
2010,08,14,03,09,20.60
2010,08,14,03,10,20.50
2010,08,14,03,11,20.50
2010,08,14,03,12,20.50
2010,08,14,03,13,20.50
2010,08,14,03,14,20.40
2010,08,14,03,15,20.40
2010,08,14,03,16,20.40
2010,08,14,03,17,20.30
2010,08,14,03,18,20.30
2010,08,14,03,19,20.30
2010,08,14,03,20,20.30
2010,08,14,03,21,20.20
2010,08,14,03,22,20.20
2010,08,14,03,23,20.20
2010,08,14,03,24,20.20
2010,08,14,03,25,20.20
2010,08,14,03,26,20.20
2010,08,14,03,27,20.20
2010,08,14,03,28,20.20
2010,08,14,03,29,20.20
2010,08,14,03,30,20.20
2010,08,14,03,31,20.10
2010,08,14,03,32,20.10
2010,08,14,03,33,20.10
2010,08,14,03,34,20.10
2010,08,14,03,35,20.10
2010,08,14,03,36,20.10
2010,08,14,03,37,20.10
2010,08,14,03,38,20.10
2010,08,14,03,39,20.10
2010,08,14,03,40,20.10
2010,08,14,03,41,20.10
2010,08,14,03,42,20.10
2010,08,14,03,43,20.10
2010,08,14,03,44,20.10
2010,08,14,03,45,20.10
2010,08,14,03,46,20.10
2010,08,14,03,47,20.10
2010,08,14,03,48,20.10
2010,08,14,03,49,20.10
2010,08,14,03,50,20.10
2010,08,14,03,51,20.10
2010,08,14,03,52,20.20
2010,08,14,03,53,20.20
2010,08,14,03,54,20.20
2010,08,14,03,55,20.20
2010,08,14,03,56,20.20
2010,08,14,03,57,20.20
2010,08,14,03,58,20.30
2010,08,14,03,59,20.30
2010,08,14,04,00,20.30
2010,08,14,04,01,20.40
2010,08,14,04,02,20.40
2010,08,14,04,03,20.40
2010,08,14,04,04,20.40
2010,08,14,04,05,20.40
2010,08,14,04,06,20.40
2010,08,14,04,07,20.50
2010,08,14,04,08,20.50
2010,08,14,04,09,20.50
2010,08,14,04,10,20.50
2010,08,14,04,11,20.50
2010,08,14,04,12,20.50
2010,08,14,04,13,20.60
2010,08,14,04,14,20.60
2010,08,14,04,15,20.60
2010,08,14,04,16,20.60
2010,08,14,04,17,20.60
2010,08,14,04,18,20.60
2010,08,14,04,19,20.70
2010,08,14,04,20,20.70
2010,08,14,04,21,20.70
2010,08,14,04,22,20.70
2010,08,14,04,23,20.70
2010,08,14,04,24,20.80
2010,08,14,04,25,20.80
2010,08,14,04,26,20.80
2010,08,14,04,27,20.80
2010,08,14,04,28,20.80
2010,08,14,04,29,20.80
2010,08,14,04,30,20.80
2010,08,14,04,31,20.70
2010,08,14,04,32,20.70
2010,08,14,04,33,20.70
2010,08,14,04,34,20.80
2010,08,14,04,35,20.80
2010,08,14,04,36,20.80
2010,08,14,04,37,20.70
2010,08,14,04,38,20.70
2010,08,14,04,39,20.70
2010,08,14,04,40,20.70
2010,08,14,04,41,20.70
2010,08,14,04,42,20.70
2010,08,14,04,43,20.70
2010,08,14,04,44,20.70
2010,08,14,04,45,20.60
2010,08,14,04,46,20.60
2010,08,14,04,47,20.60
2010,08,14,04,48,20.60
2010,08,14,04,49,20.60
2010,08,14,04,50,20.60
2010,08,14,04,51,20.60
2010,08,14,04,52,20.50
2010,08,14,04,53,20.50
2010,08,14,04,54,20.50
2010,08,14,04,55,20.50
2010,08,14,04,56,20.50
2010,08,14,04,57,20.50
2010,08,14,04,58,20.50
2010,08,14,04,59,20.50
2010,08,14,05,00,20.50
2010,08,14,05,01,20.50
2010,08,14,05,02,20.40
2010,08,14,05,03,20.40
2010,08,14,05,04,20.40
2010,08,14,05,05,20.40
2010,08,14,05,06,20.30
2010,08,14,05,07,20.30
2010,08,14,05,08,20.30
2010,08,14,05,09,20.30
2010,08,14,05,10,20.30
2010,08,14,05,11,20.20
2010,08,14,05,12,20.20
2010,08,14,05,13,20.20
2010,08,14,05,14,20.20
2010,08,14,05,15,20.20
2010,08,14,05,16,20.20
2010,08,14,05,17,20.20
2010,08,14,05,18,20.20
2010,08,14,05,19,20.20
2010,08,14,05,20,20.20
2010,08,14,05,21,20.20
2010,08,14,05,22,20.20
2010,08,14,05,23,20.10
2010,08,14,05,24,20.10
2010,08,14,05,25,20.00
2010,08,14,05,26,19.90
2010,08,14,05,27,19.90
2010,08,14,05,28,19.90
2010,08,14,05,29,19.90
2010,08,14,05,30,19.90
2010,08,14,05,31,19.80
2010,08,14,05,32,19.80
2010,08,14,05,33,19.80
2010,08,14,05,34,19.70
2010,08,14,05,35,19.70
2010,08,14,05,36,19.70
2010,08,14,05,37,19.70
2010,08,14,05,38,19.60
2010,08,14,05,39,19.60
2010,08,14,05,40,19.60
2010,08,14,05,41,19.60
2010,08,14,05,42,19.60
2010,08,14,05,43,19.60
2010,08,14,05,44,19.60
2010,08,14,05,45,19.60
2010,08,14,05,46,19.60
2010,08,14,05,47,19.60
2010,08,14,05,48,19.50
2010,08,14,05,49,19.50
2010,08,14,05,50,19.50
2010,08,14,05,51,19.50
2010,08,14,05,52,19.50
2010,08,14,05,53,19.50
2010,08,14,05,54,19.50
2010,08,14,05,55,19.50
2010,08,14,05,56,19.50
2010,08,14,05,57,19.50
2010,08,14,05,58,19.50
2010,08,14,05,59,19.60
2010,08,14,06,00,19.60
2010,08,14,06,01,19.60
2010,08,14,06,02,19.60
2010,08,14,06,03,19.60
2010,08,14,06,04,19.60
2010,08,14,06,05,19.60
2010,08,14,06,06,19.60
2010,08,14,06,07,19.60
2010,08,14,06,08,19.60
2010,08,14,06,09,19.60
2010,08,14,06,10,19.60
2010,08,14,06,11,19.60
2010,08,14,06,12,19.60
2010,08,14,06,13,19.60
2010,08,14,06,14,19.60
2010,08,14,06,15,19.60
2010,08,14,06,16,19.70
2010,08,14,06,17,19.70
2010,08,14,06,18,19.70
2010,08,14,06,19,19.70
2010,08,14,06,20,19.80
2010,08,14,06,21,19.80
2010,08,14,06,22,19.80
2010,08,14,06,23,19.80
2010,08,14,06,24,19.80
2010,08,14,06,25,19.80
2010,08,14,06,26,19.90
2010,08,14,06,27,19.90
2010,08,14,06,28,19.90
2010,08,14,06,29,19.90
2010,08,14,06,30,19.90
2010,08,14,06,31,19.90
2010,08,14,06,32,19.90
2010,08,14,06,33,19.90
2010,08,14,06,34,19.90
2010,08,14,06,35,19.90
2010,08,14,06,36,19.90
2010,08,14,06,37,19.90
2010,08,14,06,38,19.90
2010,08,14,06,39,20.10
2010,08,14,06,40,20.10
2010,08,14,06,41,20.10
2010,08,14,06,42,20.10
2010,08,14,06,43,20.10
2010,08,14,06,44,20.20
2010,08,14,06,45,20.20
2010,08,14,06,46,20.20
2010,08,14,06,47,20.20
2010,08,14,06,48,20.20
2010,08,14,06,49,20.20
2010,08,14,06,50,20.20
2010,08,14,06,51,20.20
2010,08,14,06,52,20.20
2010,08,14,06,53,20.20
2010,08,14,06,54,20.20
2010,08,14,06,55,20.20
2010,08,14,06,56,20.20
2010,08,14,06,57,20.20
2010,08,14,06,58,20.10
2010,08,14,06,59,20.10
2010,08,14,07,00,20.00
2010,08,14,07,01,19.90
2010,08,14,07,02,19.90
2010,08,14,07,03,19.80
2010,08,14,07,04,19.80
2010,08,14,07,05,19.70
2010,08,14,07,06,19.60
2010,08,14,07,07,19.60
2010,08,14,07,08,19.60
2010,08,14,07,09,19.60
2010,08,14,07,10,19.50
2010,08,14,07,11,19.50
2010,08,14,07,12,19.50
2010,08,14,07,13,19.50
2010,08,14,07,14,19.50
2010,08,14,07,15,19.50
2010,08,14,07,16,19.50
2010,08,14,07,17,19.50
2010,08,14,07,18,19.50
2010,08,14,07,19,19.50
2010,08,14,07,20,19.50
2010,08,14,07,21,19.50
2010,08,14,07,22,19.60
2010,08,14,07,23,19.60
2010,08,14,07,24,19.60
2010,08,14,07,25,19.60
2010,08,14,07,26,19.60
2010,08,14,07,27,19.60
2010,08,14,07,28,19.60
2010,08,14,07,29,19.60
2010,08,14,07,30,19.60
2010,08,14,07,31,19.60
2010,08,14,07,32,19.60
2010,08,14,07,33,19.60
2010,08,14,07,34,19.60
2010,08,14,07,35,19.60
2010,08,14,07,36,19.60
2010,08,14,07,37,19.60
2010,08,14,07,38,19.60
2010,08,14,07,39,19.60
2010,08,14,07,40,19.70
2010,08,14,07,41,19.80
2010,08,14,07,42,19.80
2010,08,14,07,43,19.80
2010,08,14,07,44,19.90
2010,08,14,07,45,19.90
2010,08,14,07,46,19.90
2010,08,14,07,47,19.90
2010,08,14,07,48,19.90
2010,08,14,07,49,19.90
2010,08,14,07,50,20.10
2010,08,14,07,51,20.10
2010,08,14,07,52,20.10
2010,08,14,07,53,20.20
2010,08,14,07,54,20.20
2010,08,14,07,55,20.30
2010,08,14,07,56,20.40
2010,08,14,07,57,20.40
2010,08,14,07,58,20.50
2010,08,14,07,59,20.50
2010,08,14,08,00,20.60
2010,08,14,08,01,20.70
2010,08,14,08,02,20.70
2010,08,14,08,03,20.80
2010,08,14,08,04,20.80
2010,08,14,08,05,20.90
2010,08,14,08,06,20.90
2010,08,14,08,07,20.90
2010,08,14,08,08,21.00
2010,08,14,08,09,21.00
2010,08,14,08,10,21.00
2010,08,14,08,11,21.10
2010,08,14,08,12,21.20
2010,08,14,08,13,21.30
2010,08,14,08,14,21.30
2010,08,14,08,15,21.30
2010,08,14,08,16,21.30
2010,08,14,08,17,21.40
2010,08,14,08,18,21.50
2010,08,14,08,19,21.60
2010,08,14,08,20,21.60
2010,08,14,08,21,21.60
2010,08,14,08,22,21.60
2010,08,14,08,23,21.60
2010,08,14,08,24,21.60
2010,08,14,08,25,21.70
2010,08,14,08,26,21.70
2010,08,14,08,27,21.80
2010,08,14,08,28,21.80
2010,08,14,08,29,21.90
2010,08,14,08,30,22.00
2010,08,14,08,31,22.00
2010,08,14,08,32,22.20
2010,08,14,08,33,22.30
2010,08,14,08,34,22.40
2010,08,14,08,35,22.50
2010,08,14,08,36,22.60
2010,08,14,08,37,22.60
2010,08,14,08,38,22.80
2010,08,14,08,39,22.90
2010,08,14,08,40,22.90
2010,08,14,08,41,22.90
2010,08,14,08,42,23.00
2010,08,14,08,43,23.10
2010,08,14,08,44,23.10
2010,08,14,08,45,23.10
2010,08,14,08,46,23.20
2010,08,14,08,47,23.30
2010,08,14,08,48,23.40
2010,08,14,08,49,23.50
2010,08,14,08,50,23.70
2010,08,14,08,51,23.80
2010,08,14,08,52,23.90
2010,08,14,08,53,24.00
2010,08,14,08,54,24.10
2010,08,14,08,55,24.30
2010,08,14,08,56,24.40
2010,08,14,08,57,24.40
2010,08,14,08,58,24.50
2010,08,14,08,59,24.60
2010,08,14,09,00,24.70
2010,08,14,09,01,24.80
2010,08,14,09,02,24.80
2010,08,14,09,03,24.90
2010,08,14,09,04,24.90
2010,08,14,09,05,25.00
2010,08,14,09,06,25.00
2010,08,14,09,07,25.00
2010,08,14,09,08,25.00
2010,08,14,09,09,25.00
2010,08,14,09,10,25.10
2010,08,14,09,11,25.10
2010,08,14,09,12,25.20
2010,08,14,09,13,25.20
2010,08,14,09,14,25.30
2010,08,14,09,15,25.30
2010,08,14,09,16,25.40
2010,08,14,09,17,25.40
2010,08,14,09,18,25.50
2010,08,14,09,19,25.60
2010,08,14,09,20,25.60
2010,08,14,09,21,25.70
2010,08,14,09,22,25.70
2010,08,14,09,23,25.80
2010,08,14,09,24,25.90
2010,08,14,09,25,26.00
2010,08,14,09,26,26.10
2010,08,14,09,27,26.10
2010,08,14,09,28,26.20
2010,08,14,09,29,26.20
2010,08,14,09,30,26.20
2010,08,14,09,31,26.20
2010,08,14,09,32,26.30
2010,08,14,09,33,26.40
2010,08,14,09,34,26.40
2010,08,14,09,35,26.40
2010,08,14,09,36,26.40
2010,08,14,09,37,26.40
2010,08,14,09,38,26.40
2010,08,14,09,39,26.50
2010,08,14,09,40,26.60
2010,08,14,09,41,26.60
2010,08,14,09,42,26.60
2010,08,14,09,43,26.60
2010,08,14,09,44,26.70
2010,08,14,09,45,26.70
2010,08,14,09,46,26.70
2010,08,14,09,47,26.80
2010,08,14,09,48,26.80
2010,08,14,09,49,26.80
2010,08,14,09,50,26.90
2010,08,14,09,51,26.90
2010,08,14,09,52,26.90
2010,08,14,09,53,26.90
2010,08,14,09,54,27.00
2010,08,14,09,55,27.10
2010,08,14,09,56,27.10
2010,08,14,09,57,27.10
2010,08,14,09,58,27.20
2010,08,14,09,59,27.20
2010,08,14,10,00,27.20
2010,08,14,10,01,27.20
2010,08,14,10,02,27.20
2010,08,14,10,03,27.20
2010,08,14,10,04,27.30
2010,08,14,10,05,27.30
2010,08,14,10,06,27.30
2010,08,14,10,07,27.30
2010,08,14,10,08,27.30
2010,08,14,10,09,27.30
2010,08,14,10,10,27.30
2010,08,14,10,11,27.30
2010,08,14,10,12,27.30
2010,08,14,10,13,27.30
2010,08,14,10,14,27.30
2010,08,14,10,15,27.30
2010,08,14,10,16,27.40
2010,08,14,10,17,27.40
2010,08,14,10,18,27.40
2010,08,14,10,19,27.40
2010,08,14,10,20,27.50
2010,08,14,10,21,27.50
2010,08,14,10,22,27.40
2010,08,14,10,23,27.40
2010,08,14,10,24,27.50
2010,08,14,10,25,27.60
2010,08,14,10,26,27.70
2010,08,14,10,27,27.70
2010,08,14,10,28,27.80
2010,08,14,10,29,27.90
2010,08,14,10,30,28.00
2010,08,14,10,31,28.00
2010,08,14,10,32,28.00
2010,08,14,10,33,27.90
2010,08,14,10,34,27.90
2010,08,14,10,35,27.90
2010,08,14,10,36,27.90
2010,08,14,10,37,28.00
2010,08,14,10,38,28.00
2010,08,14,10,39,28.00
2010,08,14,10,40,28.00
2010,08,14,10,41,28.00
2010,08,14,10,42,28.00
2010,08,14,10,43,28.10
2010,08,14,10,44,28.10
2010,08,14,10,45,28.10
2010,08,14,10,46,28.20
2010,08,14,10,47,28.20
2010,08,14,10,48,28.30
2010,08,14,10,49,28.30
2010,08,14,10,50,28.40
2010,08,14,10,51,28.50
2010,08,14,10,52,28.60
2010,08,14,10,53,28.50
2010,08,14,10,54,28.40
2010,08,14,10,55,28.50
2010,08,14,10,56,28.50
2010,08,14,10,57,28.40
2010,08,14,10,58,28.40
2010,08,14,10,59,28.40
2010,08,14,11,00,28.40
2010,08,14,11,01,28.40
2010,08,14,11,02,28.40
2010,08,14,11,03,28.40
2010,08,14,11,04,28.50
2010,08,14,11,05,28.60
2010,08,14,11,06,28.60
2010,08,14,11,07,28.60
2010,08,14,11,08,28.70
2010,08,14,11,09,28.70
2010,08,14,11,10,28.70
2010,08,14,11,11,28.70
2010,08,14,11,12,28.70
2010,08,14,11,13,28.70
2010,08,14,11,14,28.60
2010,08,14,11,15,28.60
2010,08,14,11,16,28.50
2010,08,14,11,17,28.40
2010,08,14,11,18,28.40
2010,08,14,11,19,28.40
2010,08,14,11,20,28.40
2010,08,14,11,21,28.60
2010,08,14,11,22,28.60
2010,08,14,11,23,28.60
2010,08,14,11,24,28.60
2010,08,14,11,25,28.70
2010,08,14,11,26,28.70
2010,08,14,11,27,28.80
2010,08,14,11,28,28.80
2010,08,14,11,29,28.80
2010,08,14,11,30,28.60
2010,08,14,11,31,28.60
2010,08,14,11,32,28.50
2010,08,14,11,33,28.40
2010,08,14,11,34,28.30
2010,08,14,11,35,28.40
2010,08,14,11,36,28.50
2010,08,14,11,37,28.60
2010,08,14,11,38,28.60
2010,08,14,11,39,28.70
2010,08,14,11,40,28.80
2010,08,14,11,41,28.80
2010,08,14,11,42,28.80
2010,08,14,11,43,28.80
2010,08,14,11,44,28.90
2010,08,14,11,45,28.90
2010,08,14,11,46,28.90
2010,08,14,11,47,28.90
2010,08,14,11,48,29.00
2010,08,14,11,49,29.10
2010,08,14,11,50,29.20
2010,08,14,11,51,29.20
2010,08,14,11,52,29.30
2010,08,14,11,53,29.30
2010,08,14,11,54,29.20
2010,08,14,11,55,29.10
2010,08,14,11,56,29.10
2010,08,14,11,57,29.10
2010,08,14,11,58,29.20
2010,08,14,11,59,29.20
2010,08,14,12,00,29.20
2010,08,14,12,01,29.20
2010,08,14,12,02,29.20
2010,08,14,12,03,29.20
2010,08,14,12,04,29.20
2010,08,14,12,05,29.30
2010,08,14,12,06,29.40
2010,08,14,12,07,29.40
2010,08,14,12,08,29.50
2010,08,14,12,09,29.50
2010,08,14,12,10,29.50
2010,08,14,12,11,29.60
2010,08,14,12,12,29.60
2010,08,14,12,13,29.60
2010,08,14,12,14,29.60
2010,08,14,12,15,29.70
2010,08,14,12,16,29.70
2010,08,14,12,17,29.80
2010,08,14,12,18,29.80
2010,08,14,12,19,29.90
2010,08,14,12,20,29.90
2010,08,14,12,21,29.90
2010,08,14,12,22,29.80
2010,08,14,12,23,29.80
2010,08,14,12,24,29.70
2010,08,14,12,25,29.80
2010,08,14,12,26,29.80
2010,08,14,12,27,29.90
2010,08,14,12,28,29.90
2010,08,14,12,29,29.90
2010,08,14,12,30,30.00
2010,08,14,12,31,30.10
2010,08,14,12,32,30.10
2010,08,14,12,33,30.20
2010,08,14,12,34,30.30
2010,08,14,12,35,30.30
2010,08,14,12,36,30.20
2010,08,14,12,37,30.20
2010,08,14,12,38,30.20
2010,08,14,12,39,30.30
2010,08,14,12,40,30.30
2010,08,14,12,41,30.40
2010,08,14,12,42,30.40
2010,08,14,12,43,30.60
2010,08,14,12,44,30.60
2010,08,14,12,45,30.70
2010,08,14,12,46,30.80
2010,08,14,12,47,30.80
2010,08,14,12,48,30.80
2010,08,14,12,49,30.80
2010,08,14,12,50,30.80
2010,08,14,12,51,30.70
2010,08,14,12,52,30.70
2010,08,14,12,53,30.60
2010,08,14,12,54,30.60
2010,08,14,12,55,30.50
2010,08,14,12,56,30.40
2010,08,14,12,57,30.40
2010,08,14,12,58,30.60
2010,08,14,12,59,30.60
2010,08,14,13,00,30.60
2010,08,14,13,01,30.60
2010,08,14,13,02,30.60
2010,08,14,13,03,30.70
2010,08,14,13,04,30.70
2010,08,14,13,05,30.70
2010,08,14,13,06,30.80
2010,08,14,13,07,30.80
2010,08,14,13,08,30.80
2010,08,14,13,09,30.80
2010,08,14,13,10,30.80
2010,08,14,13,11,30.80
2010,08,14,13,12,30.80
2010,08,14,13,13,30.80
2010,08,14,13,14,30.70
2010,08,14,13,15,30.70
2010,08,14,13,16,30.70
2010,08,14,13,17,30.70
2010,08,14,13,18,30.60
2010,08,14,13,19,30.60
2010,08,14,13,20,30.60
2010,08,14,13,21,30.60
2010,08,14,13,22,30.60
2010,08,14,13,23,30.60
2010,08,14,13,24,30.60
2010,08,14,13,25,30.50
2010,08,14,13,26,30.40
2010,08,14,13,27,30.40
2010,08,14,13,28,30.40
2010,08,14,13,29,30.50
2010,08,14,13,30,30.60
2010,08,14,13,31,30.60
2010,08,14,13,32,30.40
2010,08,14,13,33,30.40
2010,08,14,13,34,30.60
2010,08,14,13,35,30.60
2010,08,14,13,36,30.70
2010,08,14,13,37,30.70
2010,08,14,13,38,30.80
2010,08,14,13,39,30.80
2010,08,14,13,40,30.90
2010,08,14,13,41,30.90
2010,08,14,13,42,31.00
2010,08,14,13,43,30.90
2010,08,14,13,44,30.90
2010,08,14,13,45,30.90
2010,08,14,13,46,30.80
2010,08,14,13,47,30.60
2010,08,14,13,48,30.50
2010,08,14,13,49,30.40
2010,08,14,13,50,30.30
2010,08,14,13,51,30.30
2010,08,14,13,52,30.30
2010,08,14,13,53,30.30
2010,08,14,13,54,30.30
2010,08,14,13,55,30.30
2010,08,14,13,56,30.30
2010,08,14,13,57,30.40
2010,08,14,13,58,30.60
2010,08,14,13,59,30.70
2010,08,14,14,00,30.80
2010,08,14,14,01,30.90
2010,08,14,14,02,30.90
2010,08,14,14,03,31.00
2010,08,14,14,04,31.00
2010,08,14,14,05,30.90
2010,08,14,14,06,30.90
2010,08,14,14,07,30.90
2010,08,14,14,08,30.90
2010,08,14,14,09,30.90
2010,08,14,14,10,30.90
2010,08,14,14,11,31.00
2010,08,14,14,12,31.00
2010,08,14,14,13,31.00
2010,08,14,14,14,31.10
2010,08,14,14,15,31.10
2010,08,14,14,16,31.20
2010,08,14,14,17,31.20
2010,08,14,14,18,31.30
2010,08,14,14,19,31.30
2010,08,14,14,20,31.40
2010,08,14,14,21,31.40
2010,08,14,14,22,31.40
2010,08,14,14,23,31.50
2010,08,14,14,24,31.60
2010,08,14,14,25,31.60
2010,08,14,14,26,31.60
2010,08,14,14,27,31.60
2010,08,14,14,28,31.60
2010,08,14,14,29,31.60
2010,08,14,14,30,31.50
2010,08,14,14,31,31.40
2010,08,14,14,32,31.50
2010,08,14,14,33,31.50
2010,08,14,14,34,31.40
2010,08,14,14,35,31.40
2010,08,14,14,36,31.30
2010,08,14,14,37,31.30
2010,08,14,14,38,31.20
2010,08,14,14,39,31.20
2010,08,14,14,40,31.20
2010,08,14,14,41,31.30
2010,08,14,14,42,31.40
2010,08,14,14,43,31.40
2010,08,14,14,44,31.50
2010,08,14,14,45,31.60
2010,08,14,14,46,31.60
2010,08,14,14,47,31.70
2010,08,14,14,48,31.70
2010,08,14,14,49,31.70
2010,08,14,14,50,31.80
2010,08,14,14,51,31.80
2010,08,14,14,52,31.80
2010,08,14,14,53,31.80
2010,08,14,14,54,31.80
2010,08,14,14,55,31.60
2010,08,14,14,56,31.60
2010,08,14,14,57,31.60
2010,08,14,14,58,31.60
2010,08,14,14,59,31.60
2010,08,14,15,00,31.60
2010,08,14,15,01,31.60
2010,08,14,15,02,31.70
2010,08,14,15,03,31.90
2010,08,14,15,04,32.00
2010,08,14,15,05,32.10
2010,08,14,15,06,32.20
2010,08,14,15,07,32.10
2010,08,14,15,08,32.10
2010,08,14,15,09,32.20
2010,08,14,15,10,32.10
2010,08,14,15,11,32.10
2010,08,14,15,12,32.00
2010,08,14,15,13,32.00
2010,08,14,15,14,32.10
2010,08,14,15,15,32.10
2010,08,14,15,16,32.10
2010,08,14,15,17,32.10
2010,08,14,15,18,31.90
2010,08,14,15,19,31.80
2010,08,14,15,20,31.70
2010,08,14,15,21,31.60
2010,08,14,15,22,31.60
2010,08,14,15,23,31.70
2010,08,14,15,24,31.70
2010,08,14,15,25,31.80
2010,08,14,15,26,31.90
2010,08,14,15,27,31.90
2010,08,14,15,28,32.00
2010,08,14,15,29,32.10
2010,08,14,15,30,32.10
2010,08,14,15,31,32.10
2010,08,14,15,32,32.00
2010,08,14,15,33,31.90
2010,08,14,15,34,31.80
2010,08,14,15,35,31.80
2010,08,14,15,36,31.80
2010,08,14,15,37,31.80
2010,08,14,15,38,31.90
2010,08,14,15,39,31.90
2010,08,14,15,40,31.90
2010,08,14,15,41,31.90
2010,08,14,15,42,31.90
2010,08,14,15,43,32.00
2010,08,14,15,44,32.10
2010,08,14,15,45,32.20
2010,08,14,15,46,32.20
2010,08,14,15,47,32.20
2010,08,14,15,48,32.30
2010,08,14,15,49,32.30
2010,08,14,15,50,32.30
2010,08,14,15,51,32.30
2010,08,14,15,52,32.30
2010,08,14,15,53,32.20
2010,08,14,15,54,32.10
2010,08,14,15,55,32.00
2010,08,14,15,56,31.90
2010,08,14,15,57,31.90
2010,08,14,15,58,31.80
2010,08,14,15,59,31.80
2010,08,14,16,00,31.80
2010,08,14,16,01,31.70
2010,08,14,16,02,31.60
2010,08,14,16,03,31.60
2010,08,14,16,04,31.60
2010,08,14,16,05,31.60
2010,08,14,16,06,31.50
2010,08,14,16,07,31.40
2010,08,14,16,08,31.40
2010,08,14,16,09,31.40
2010,08,14,16,10,31.30
2010,08,14,16,11,31.30
2010,08,14,16,12,31.30
2010,08,14,16,13,31.20
2010,08,14,16,14,31.20
2010,08,14,16,15,31.10
2010,08,14,16,16,31.00
2010,08,14,16,17,31.00
2010,08,14,16,18,30.90
2010,08,14,16,19,30.90
2010,08,14,16,20,30.80
2010,08,14,16,21,30.80
2010,08,14,16,22,30.80
2010,08,14,16,23,30.80
2010,08,14,16,24,30.70
2010,08,14,16,25,30.70
2010,08,14,16,26,30.60
2010,08,14,16,27,30.60
2010,08,14,16,28,30.60
2010,08,14,16,29,30.40
2010,08,14,16,30,30.40
2010,08,14,16,31,30.30
2010,08,14,16,32,30.30
2010,08,14,16,33,30.30
2010,08,14,16,34,30.30
2010,08,14,16,35,30.30
2010,08,14,16,36,30.30
2010,08,14,16,37,30.30
2010,08,14,16,38,30.30
2010,08,14,16,39,30.30
2010,08,14,16,40,30.30
2010,08,14,16,41,30.30
2010,08,14,16,42,30.30
2010,08,14,16,43,30.30
2010,08,14,16,44,30.30
2010,08,14,16,45,30.30
2010,08,14,16,46,30.20
2010,08,14,16,47,30.20
2010,08,14,16,48,30.20
2010,08,14,16,49,30.20
2010,08,14,16,50,30.10
2010,08,14,16,51,30.10
2010,08,14,16,52,30.20
2010,08,14,16,53,30.10
2010,08,14,16,54,30.10
2010,08,14,16,55,30.10
2010,08,14,16,56,30.00
2010,08,14,16,57,29.90
2010,08,14,16,58,29.90
2010,08,14,16,59,29.80
2010,08,14,17,00,29.80
2010,08,14,17,01,29.70
2010,08,14,17,02,29.70
2010,08,14,17,03,29.70
2010,08,14,17,04,29.70
2010,08,14,17,05,29.70
2010,08,14,17,06,29.70
2010,08,14,17,07,29.70
2010,08,14,17,08,29.70
2010,08,14,17,09,29.70
2010,08,14,17,10,29.70
2010,08,14,17,11,29.70
2010,08,14,17,12,29.60
2010,08,14,17,13,29.70
2010,08,14,17,14,29.70
2010,08,14,17,15,29.70
2010,08,14,17,16,29.70
2010,08,14,17,17,29.70
2010,08,14,17,18,29.70
2010,08,14,17,19,29.70